| time (UTC) | temp C | wind direction | speed KPH | gust KPH | rain 1hr cm | rain 24hr cm | rain mn cm | humidity % | barometer mb |
| 20260510103017 | 0 | 158 | 3.2 | 8.0 | 0.00 | 0.00 | 0.00 | 95 | 1024.9 |
| 20260510102017 | 0 | 180 | 4.8 | 8.0 | 0.00 | 0.00 | 0.00 | 95 | 1024.8 |
| 20260510101017 | 0 | 180 | 3.2 | 8.0 | 0.00 | 0.00 | 0.00 | 95 | 1024.7 |
| 20260510100017 | 0 | 135 | 1.6 | 6.4 | 0.00 | 0.00 | 0.00 | 95 | 1024.5 |
| 20260510095017 | 0 | 135 | 6.4 | 12.9 | 0.00 | 0.00 | 0.00 | 95 | 1024.5 |
| 20260510094536 | 0 | 135 | 6.4 | 14.5 | 0.00 | 0.00 | 0.00 | 95 | 1025.0 |
| 20260510093516 | 0 | 0.0 | 1.6 | 0.00 | 0.00 | 0.00 | 95 | 1024.9 | |
| 20260510092516 | 0 | 0.0 | 3.2 | 0.00 | 0.00 | 0.00 | 95 | 1024.8 | |
| 20260510091516 | 0 | 315 | 3.2 | 8.0 | 0.00 | 0.00 | 0.00 | 95 | 1024.0 |
| 20260510090536 | 0 | 338 | 4.8 | 6.4 | 0.00 | 0.00 | 0.00 | 95 | 1023.8 |
| 20260510085516 | 0 | 315 | 3.2 | 6.4 | 0.00 | 0.00 | 0.00 | 95 | 1023.7 |
| 20260510084515 | 0 | 315 | 4.8 | 11.3 | 0.00 | 0.00 | 0.00 | 95 | 1024.2 |
| 20260510083536 | 0 | 315 | 6.4 | 9.7 | 0.00 | 0.00 | 0.00 | 95 | 1024.1 |
| 20260510082515 | 0 | 293 | 3.2 | 8.0 | 0.00 | 0.00 | 0.00 | 95 | 1024.1 |
| 20260510081516 | 0 | 293 | 6.4 | 12.9 | 0.00 | 0.00 | 0.00 | 95 | 1023.3 |
| 20260510080516 | 0 | 270 | 3.2 | 4.8 | 0.00 | 0.00 | 0.00 | 95 | 1023.3 |
| 20260510075515 | 0 | 270 | 3.2 | 11.3 | 0.00 | 0.00 | 0.00 | 94 | 1023.4 |
| 20260510074516 | 0 | 248 | 4.8 | 6.4 | 0.00 | 0.00 | 0.00 | 94 | 1023.5 |
| 20260510073516 | 0 | 248 | 3.2 | 6.4 | 0.00 | 0.00 | 0.00 | 94 | 1023.5 |
| 20260510072516 | 1 | 248 | 3.2 | 4.8 | 0.00 | 0.00 | 0.00 | 94 | 1023.7 |
| 20260510071515 | 1 | 248 | 4.8 | 8.0 | 0.00 | 0.00 | 0.00 | 94 | 1023.7 |
| 20260510070515 | 1 | 203 | 3.2 | 6.4 | 0.00 | 0.00 | 0.00 | 94 | 1023.8 |
| 20260510065515 | 1 | 0.0 | 3.2 | 0.00 | 0.00 | 0.00 | 94 | 1023.9 | |
| 20260510064515 | 1 | 0.0 | 3.2 | 0.00 | 0.00 | 0.00 | 93 | 1023.2 | |
| 20260510063535 | 1 | 203 | 1.6 | 4.8 | 0.00 | 0.00 | 0.00 | 93 | 1023.3 |
| 20260510062515 | 1 | 0.0 | 0.0 | 0.00 | 0.00 | 0.00 | 93 | 1023.2 | |
| 20260510061515 | 1 | 0.0 | 3.2 | 0.00 | 0.00 | 0.00 | 93 | 1023.0 | |
| 20260510060515 | 1 | 0.0 | 0.0 | 0.00 | 0.00 | 0.00 | 92 | 1022.9 | |
| 20260510055536 | 1 | 0.0 | 0.0 | 0.00 | 0.00 | 0.00 | 92 | 1022.6 | |
| 20260510054536 | 1 | 0.0 | 3.2 | 0.00 | 0.00 | 0.00 | 92 | 1022.4 | |
| 20260510053516 | 1 | 0.0 | 3.2 | 0.00 | 0.00 | 0.00 | 92 | 1022.7 | |
| 20260510052516 | 1 | 0.0 | 3.2 | 0.00 | 0.00 | 0.00 | 91 | 1022.7 | |
| 20260510051557 | 1 | 180 | 3.2 | 6.4 | 0.00 | 0.00 | 0.00 | 91 | 1022.7 |
| 20260510050536 | 1 | 203 | 3.2 | 6.4 | 0.00 | 0.00 | 0.00 | 91 | 1022.7 |
| 20260510045536 | 1 | 203 | 3.2 | 6.4 | 0.00 | 0.00 | 0.00 | 90 | 1022.6 |
| 20260510044516 | 1 | 180 | 4.8 | 8.0 | 0.00 | 0.00 | 0.00 | 90 | 1022.0 |
| 20260510043536 | 1 | 180 | 4.8 | 9.7 | 0.00 | 0.00 | 0.00 | 90 | 1022.1 |
| 20260510042516 | 1 | 158 | 3.2 | 8.0 | 0.00 | 0.00 | 0.00 | 90 | 1022.0 |
| 20260510041536 | 1 | 158 | 4.8 | 12.9 | 0.00 | 0.00 | 0.00 | 90 | 1021.3 |
| 20260510040516 | 1 | 158 | 6.4 | 12.9 | 0.00 | 0.00 | 0.00 | 91 | 1021.0 |
| 20260510035516 | 1 | 135 | 6.4 | 12.9 | 0.00 | 0.00 | 0.00 | 91 | 1021.4 |
| 20260510034536 | 1 | 158 | 4.8 | 12.9 | 0.00 | 0.00 | 0.00 | 91 | 1021.9 |
| 20260510033515 | 1 | 158 | 4.8 | 14.5 | 0.00 | 0.00 | 0.00 | 91 | 1021.9 |
| 20260510032515 | 1 | 135 | 6.4 | 16.1 | 0.00 | 0.00 | 0.00 | 91 | 1021.5 |
| 20260510031536 | 1 | 135 | 6.4 | 12.9 | 0.00 | 0.00 | 0.00 | 91 | 1020.0 |
| 20260510030516 | 1 | 135 | 8.0 | 16.1 | 0.00 | 0.00 | 0.00 | 90 | 1019.9 |
| 20260510025515 | 2 | 135 | 9.7 | 20.9 | 0.00 | 0.00 | 0.00 | 89 | 1020.1 |
| 20260510024535 | 2 | 135 | 8.0 | 19.3 | 0.00 | 0.00 | 0.00 | 87 | 1019.4 |
| 20260510023515 | 2 | 135 | 8.0 | 17.7 | 0.00 | 0.00 | 0.00 | 85 | 1019.3 |
| 20260510022515 | 3 | 158 | 9.7 | 17.7 | 0.00 | 0.00 | 0.00 | 82 | 1018.8 |
| 20260510021515 | 3 | 158 | 11.3 | 22.5 | 0.00 | 0.00 | 0.00 | 78 | 1017.9 |
| 20260510020515 | 3 | 158 | 11.3 | 17.7 | 0.00 | 0.00 | 0.00 | 74 | 1018.1 |
| 20260510015515 | 5 | 180 | 11.3 | 19.3 | 0.00 | 0.00 | 0.00 | 67 | 1018.3 |
| 20260510014516 | 6 | 180 | 11.3 | 20.9 | 0.00 | 0.00 | 0.00 | 61 | 1018.7 |
| 20260510013535 | 8 | 203 | 11.3 | 25.7 | 0.00 | 0.00 | 0.00 | 53 | 1020.0 |
| 20260510012515 | 10 | 135 | 9.7 | 19.3 | 0.00 | 0.00 | 0.00 | 34 | 1020.0 |
| 20260510011515 | 11 | 90 | 9.7 | 24.1 | 0.00 | 0.00 | 0.00 | 16 | 1019.9 |
| 20260510010515 | 12 | 113 | 11.3 | 25.7 | 0.00 | 0.00 | 0.00 | 15 | 1019.8 |
| 20260510005515 | 12 | 68 | 6.4 | 19.3 | 0.00 | 0.00 | 0.00 | 16 | 1019.7 |
| 20260510004537 | 12 | 90 | 8.0 | 20.9 | 0.00 | 0.00 | 0.00 | 18 | 1020.0 |
| 20260510003517 | 12 | 113 | 8.0 | 19.3 | 0.00 | 0.00 | 0.00 | 19 | 1020.0 |
| 20260510002518 | 12 | 0 | 14.5 | 30.6 | 0.00 | 0.00 | 0.00 | 20 | 1019.9 |
| 20260510001517 | 12 | 68 | 11.3 | 32.2 | 0.00 | 0.00 | 0.00 | 19 | 1020.4 |
| 20260510000517 | 12 | 0 | 9.7 | 30.6 | 0.00 | 0.00 | 0.00 | 19 | 1020.2 |
| 20260509235517 | 12 | 0 | 12.9 | 32.2 | 0.00 | 0.00 | 0.00 | 19 | 1020.2 |
| 20260509234517 | 12 | 0 | 12.9 | 27.4 | 0.00 | 0.00 | 0.00 | 19 | 1020.7 |
| 20260509233517 | 13 | 68 | 8.0 | 24.1 | 0.00 | 0.00 | 0.00 | 20 | 1020.5 |
| 20260509232517 | 13 | 68 | 9.7 | 24.1 | 0.00 | 0.00 | 0.00 | 19 | 1020.6 |
| 20260509231517 | 13 | 0 | 11.3 | 25.7 | 0.00 | 0.00 | 0.00 | 19 | 1020.3 |
| 20260509230517 | 13 | 68 | 16.1 | 41.8 | 0.00 | 0.00 | 0.00 | 19 | 1021.0 |
| 20260509225537 | 13 | 0 | 12.9 | 27.4 | 0.00 | 0.00 | 0.00 | 20 | 1020.8 |
| 20260509224537 | 14 | 0 | 9.7 | 30.6 | 0.00 | 0.00 | 0.00 | 19 | 1021.6 |
| 20260509223517 | 13 | 0 | 8.0 | 22.5 | 0.00 | 0.00 | 0.00 | 19 | 1020.7 |
| 20260509222537 | 13 | 0 | 11.3 | 22.5 | 0.00 | 0.00 | 0.00 | 18 | 1020.9 |
| 20260509221517 | 14 | 0 | 11.3 | 24.1 | 0.00 | 0.00 | 0.00 | 17 | 1021.3 |
| 20260509220517 | 14 | 0 | 9.7 | 22.5 | 0.00 | 0.00 | 0.00 | 19 | 1021.6 |
| 20260509215516 | 15 | 68 | 9.7 | 32.2 | 0.00 | 0.00 | 0.00 | 18 | 1021.7 |
| 20260509214516 | 13 | 0 | 24.1 | 40.2 | 0.00 | 0.00 | 0.00 | 19 | 1021.0 |
| 20260509213517 | 14 | 0 | 14.5 | 32.2 | 0.00 | 0.00 | 0.00 | 19 | 1021.8 |
| 20260509212517 | 13 | 90 | 16.1 | 35.4 | 0.00 | 0.00 | 0.00 | 17 | 1021.1 |
| 20260509211517 | 14 | 68 | 14.5 | 37.0 | 0.00 | 0.00 | 0.00 | 20 | 1021.9 |
| 20260509210516 | 13 | 0 | 17.7 | 40.2 | 0.00 | 0.00 | 0.00 | 20 | 1021.3 |
| 20260509205516 | 13 | 0 | 16.1 | 29.0 | 0.00 | 0.00 | 0.00 | 20 | 1021.2 |
| 20260509204517 | 14 | 0 | 11.3 | 27.4 | 0.00 | 0.00 | 0.00 | 21 | 1021.5 |
| 20260509203516 | 13 | 0 | 16.1 | 33.8 | 0.00 | 0.00 | 0.00 | 21 | 1021.9 |
| 20260509202517 | 13 | 0 | 16.1 | 43.5 | 0.00 | 0.00 | 0.00 | 21 | 1021.5 |
| 20260509201556 | 14 | 0 | 11.3 | 29.0 | 0.00 | 0.00 | 0.00 | 24 | 1021.8 |
| 20260509200516 | 13 | 0 | 12.9 | 25.7 | 0.00 | 0.00 | 0.00 | 24 | 1021.9 |
| 20260509195517 | 13 | 0 | 9.7 | 27.4 | 0.00 | 0.00 | 0.00 | 25 | 1021.9 |
| 20260509194517 | 13 | 0 | 9.7 | 20.9 | 0.00 | 0.00 | 0.00 | 24 | 1022.0 |
| 20260509193516 | 13 | 45 | 12.9 | 32.2 | 0.00 | 0.00 | 0.00 | 25 | 1021.8 |
| 20260509192536 | 13 | 45 | 12.9 | 27.4 | 0.00 | 0.00 | 0.00 | 24 | 1022.1 |
| 20260509191516 | 12 | 0 | 12.9 | 24.1 | 0.00 | 0.00 | 0.00 | 25 | 1021.4 |
| 20260509190516 | 12 | 0 | 12.9 | 33.8 | 0.00 | 0.00 | 0.00 | 23 | 1020.9 |
| 20260509185557 | 12 | 90 | 17.7 | 33.8 | 0.00 | 0.00 | 0.00 | 25 | 1020.8 |
| 20260509184516 | 12 | 0 | 11.3 | 24.1 | 0.00 | 0.00 | 0.00 | 27 | 1021.6 |
| 20260509183556 | 12 | 0 | 16.1 | 30.6 | 0.00 | 0.00 | 0.00 | 25 | 1020.8 |
| 20260509182516 | 12 | 90 | 14.5 | 27.4 | 0.00 | 0.00 | 0.00 | 25 | 1021.4 |
| 20260509181516 | 11 | 45 | 11.3 | 25.7 | 0.00 | 0.00 | 0.00 | 27 | 1020.2 |
| 20260509180516 | 11 | 0 | 11.3 | 37.0 | 0.00 | 0.00 | 0.00 | 28 | 1020.3 |
| 20260509175516 | 11 | 0 | 12.9 | 30.6 | 0.00 | 0.00 | 0.00 | 28 | 1019.7 |
| 20260509174516 | 11 | 0 | 12.9 | 29.0 | 0.00 | 0.00 | 0.00 | 27 | 1019.7 |
| 20260509173516 | 10 | 0 | 11.3 | 27.4 | 0.00 | 0.00 | 0.00 | 26 | 1019.8 |
| 20260509172516 | 11 | 0 | 6.4 | 20.9 | 0.00 | 0.00 | 0.00 | 27 | 1020.5 |
| 20260509171516 | 11 | 0 | 4.8 | 14.5 | 0.00 | 0.00 | 0.00 | 28 | 1019.9 |
| 20260509170516 | 10 | 113 | 12.9 | 29.0 | 0.00 | 0.00 | 0.00 | 28 | 1019.9 |
| 20260509165536 | 10 | 113 | 16.1 | 46.7 | 0.00 | 0.00 | 0.00 | 28 | 1019.8 |
| 20260509164516 | 10 | 0 | 11.3 | 25.7 | 0.00 | 0.00 | 0.00 | 30 | 1019.7 |
| 20260509163516 | 10 | 68 | 12.9 | 29.0 | 0.00 | 0.00 | 0.00 | 31 | 1019.7 |
| 20260509162516 | 10 | 0 | 9.7 | 20.9 | 0.00 | 0.00 | 0.00 | 30 | 1019.5 |
| 20260509161516 | 10 | 0 | 8.0 | 24.1 | 0.00 | 0.00 | 0.00 | 31 | 1019.2 |
| 20260509160516 | 9 | 0 | 14.5 | 30.6 | 0.00 | 0.00 | 0.00 | 32 | 1018.5 |
| 20260509155516 | 9 | 0 | 14.5 | 29.0 | 0.00 | 0.00 | 0.00 | 33 | 1018.6 |
| 20260509154516 | 9 | 0 | 17.7 | 38.6 | 0.00 | 0.00 | 0.00 | 31 | 1018.3 |
| 20260509153515 | 8 | 0 | 14.5 | 30.6 | 0.00 | 0.00 | 0.00 | 31 | 1018.3 |
| 20260509152515 | 9 | 0 | 9.7 | 25.7 | 0.00 | 0.00 | 0.00 | 31 | 1018.7 |
| 20260509151515 | 9 | 0 | 6.4 | 17.7 | 0.00 | 0.00 | 0.00 | 34 | 1019.7 |
| 20260509150515 | 8 | 0 | 8.0 | 22.5 | 0.00 | 0.00 | 0.00 | 35 | 1018.9 |
| 20260509145516 | 8 | 0 | 4.8 | 16.1 | 0.00 | 0.00 | 0.00 | 37 | 1019.1 |
| 20260509144515 | 8 | 0 | 8.0 | 20.9 | 0.00 | 0.00 | 0.00 | 39 | 1019.2 |
| 20260509143515 | 7 | 0 | 8.0 | 22.5 | 0.00 | 0.00 | 0.00 | 40 | 1019.1 |
| 20260509142515 | 7 | 45 | 16.1 | 35.4 | 0.00 | 0.00 | 0.00 | 39 | 1018.4 |
| 20260509141516 | 7 | 45 | 11.3 | 25.7 | 0.00 | 0.00 | 0.00 | 39 | 1019.2 |
| 20260509140516 | 6 | 45 | 8.0 | 20.9 | 0.00 | 0.00 | 0.00 | 39 | 1018.4 |
| 20260509135535 | 6 | 68 | 8.0 | 20.9 | 0.00 | 0.00 | 0.00 | 39 | 1018.5 |
| 20260509134516 | 6 | 45 | 14.5 | 27.4 | 0.00 | 0.00 | 0.00 | 41 | 1018.5 |
| 20260509133516 | 5 | 45 | 9.7 | 17.7 | 0.00 | 0.00 | 0.00 | 43 | 1018.4 |
| 20260509132515 | 5 | 68 | 8.0 | 19.3 | 0.00 | 0.00 | 0.00 | 44 | 1018.4 |
| 20260509131515 | 5 | 68 | 4.8 | 11.3 | 0.00 | 0.00 | 0.00 | 44 | 1018.2 |
| 20260509130515 | 5 | 45 | 4.8 | 16.1 | 0.00 | 0.00 | 0.00 | 45 | 1018.1 |
| 20260509125515 | 5 | 0 | 6.4 | 16.1 | 0.00 | 0.00 | 0.00 | 45 | 1018.0 |
| 20260509124517 | 5 | 0 | 3.2 | 12.9 | 0.00 | 0.00 | 0.00 | 48 | 1018.5 |
| 20260509123517 | 5 | 45 | 4.8 | 9.7 | 0.00 | 0.00 | 0.00 | 48 | 1019.0 |
| 20260509122517 | 5 | 23 | 6.4 | 16.1 | 0.00 | 0.00 | 0.00 | 49 | 1018.9 |
| 20260509121517 | 5 | 113 | 1.6 | 6.4 | 0.00 | 0.00 | 0.00 | 50 | 1019.5 |
| 20260509120517 | 5 | 23 | 3.2 | 6.4 | 0.00 | 0.00 | 0.00 | 49 | 1020.0 |
| 20260509115537 | 5 | 45 | 4.8 | 8.0 | 0.00 | 0.00 | 0.00 | 50 | 1020.2 |
| 20260509114517 | 5 | 68 | 3.2 | 11.3 | 0.00 | 0.00 | 0.00 | 50 | 1020.2 |
| 20260509113517 | 5 | 0.0 | 3.2 | 0.00 | 0.00 | 0.00 | 50 | 1020.3 | |
| 20260509112517 | 5 | 90 | 8.0 | 17.7 | 0.00 | 0.00 | 0.00 | 50 | 1020.1 |
| 20260509111517 | 6 | 45 | 6.4 | 24.1 | 0.00 | 0.00 | 0.00 | 49 | 1020.8 |
| 20260509110517 | 6 | 0 | 6.4 | 16.1 | 0.00 | 0.00 | 0.00 | 49 | 1020.8 |
| 20260509105517 | 6 | 0 | 6.4 | 12.9 | 0.00 | 0.00 | 0.00 | 49 | 1020.8 |
| 20260509104537 | 6 | 45 | 9.7 | 22.5 | 0.00 | 0.00 | 0.00 | 48 | 1020.9 |
| 20260509103517 | 6 | 0 | 9.7 | 17.7 | 0.00 | 0.00 | 0.00 | 48 | 1020.6 |